Location: Detroit
(42.3310°N, 83.0460°W)
Time: 01:22:58
(UTC-04:00)

A-11 Canister half - Pass Details

Date: 11 February 2023
Orbit: 1526 x 1682 km, 47.3° (Epoch: 20 March)

Event Time Altitude Azimuth Distance (km) Brightness Sun altitude
Rises 04:53:27 0° 245° (WSW) 4,693 - -30.2°
Reaches altitude 10° 04:56:30 10° 246° (WSW) 3,701 - -29.6°
Exits shadow 05:03:09 53° 250° (WSW) 1,819 8.9 -28.4°
Maximum altitude 05:05:51 87° 337° (NNW) 1,532 8.8 -27.9°
Drops below altitude 10° 05:15:15 10° 67° (ENE) 3,714 11.9 -26.2°
Sets 05:18:19 0° 68° (ENE) 4,711 12.7 -25.6°
